EW6946 Weather Reports


Display with metric or nautical units.
time (UTC)temp
F
wind
direction
speed
MPH
gust
MPH
rain 1hr
in
rain 24hr
in
rain mn
in
humidity
%
barometer
mb
20260507020056 49 246 3.0 0.0 0.00 0.00 0.00 73 1009.4
20260507014556 50 193 4.0 0.0 0.00 0.00 0.00 72 1009.4
20260507013114 50 219 4.0 0.0 0.00 0.00 0.00 71 1009.5
20260507011554 50 218 4.0 0.0 0.00 0.00 0.00 70 1009.5
20260507010055 50 213 6.0 0.0 0.00 0.00 0.00 70 1009.5
20260507004554 51 197 5.0 0.0 0.00 0.00 0.00 69 1009.4
20260507003053 51 221 5.0 0.0 0.00 0.00 0.00 69 1009.3
20260507001609 51 233 5.0 0.0 0.00 0.00 0.00 69 1009.2
20260507000052 51 215 6.0 0.0 0.00 0.00 0.00 68 1009.0
20260506234559 51 228 6.0 0.0 0.00 0.00 0.00 67 1008.9
20260506233053 52 190 6.0 0.0 0.00 0.00 0.00 66 1008.8
20260506231553 52 184 7.0 0.0 0.00 0.00 0.00 65 1008.6
20260506230050 53 192 6.0 0.0 0.00 0.00 0.00 64 1008.6
20260506224605 53 213 8.0 0.0 0.00 0.00 0.00 64 1008.6
20260506223054 53 189 7.0 0.0 0.00 0.00 0.00 63 1008.7
20260506221549 53 252 6.0 0.0 0.00 0.00 0.00 62 1008.6
20260506214549 54 190 6.0 0.0 0.00 0.00 0.00 58 1008.5
20260506213048 55 180 5.0 0.0 0.00 0.00 0.00 57 1008.5
20260506211553 55 192 9.0 0.0 0.00 0.00 0.00 57 1008.5
20260506210047 55 205 9.0 0.0 0.00 0.00 0.00 57 1008.5
20260506204546 56 213 6.0 0.0 0.00 0.00 0.00 55 1008.4
20260506203047 56 139 6.0 0.0 0.00 0.00 0.00 55 1008.2
20260506201543 56 190 7.0 0.0 0.00 0.00 0.00 56 1008.4
20260506200041 56 212 6.0 0.0 0.00 0.00 0.00 55 1008.6
20260506194545 56 193 7.0 0.0 0.00 0.00 0.00 56 1008.7
20260506193043 55 208 6.0 0.0 0.00 0.00 0.00 57 1008.9
20260506191535 55 224 5.0 0.0 0.00 0.00 0.00 59 1009.0
20260506190031 54 278 5.0 0.0 0.00 0.00 0.00 59 1009.0
20260506184531 53 147 5.0 0.0 0.00 0.00 0.00 61 1009.0
20260506183029 52 272 5.0 0.0 0.00 0.00 0.00 63 1009.1
20260506181525 51 170 7.0 0.0 0.00 0.00 0.00 64 1009.3
20260506180024 51 219 7.0 0.0 0.00 0.00 0.00 67 1009.4
20260506174524 51 217 7.0 0.0 0.00 0.00 0.00 68 1009.4
20260506173023 50 204 6.0 0.0 0.00 0.00 0.00 70 1009.6
20260506171525 49 194 5.0 0.0 0.00 0.00 0.00 70 1009.6
20260506170019 49 198 5.0 0.0 0.00 0.00 0.00 71 1009.5
20260506164520 49 206 6.0 0.0 0.00 0.00 0.00 70 1009.7
20260506163018 50 189 4.0 0.0 0.00 0.00 0.00 69 1009.8
20260506161518 50 159 5.0 0.0 0.00 0.00 0.00 68 1009.7
20260506160028 50 235 4.0 0.0 0.00 0.00 0.00 67 1009.7
20260506154518 50 191 5.0 0.0 0.00 0.00 0.00 70 1009.8
20260506153016 50 193 4.0 0.0 0.00 0.00 0.00 69 1010.0
20260506151517 49 142 5.0 0.0 0.00 0.00 0.00 70 1009.9
20260506150014 49 178 4.0 0.0 0.00 0.00 0.00 70 1010.0
20260506144513 48 188 5.0 0.0 0.00 0.00 0.00 72 1010.2
20260506143012 48 146 5.0 0.0 0.00 0.00 0.00 74 1010.1
20260506141509 48 236 6.0 0.0 0.00 0.00 0.00 72 1010.0
20260506140007 47 213 5.0 0.0 0.00 0.00 0.00 74 1009.9
20260506134504 47 189 5.0 0.0 0.00 0.00 0.00 73 1009.8
20260506133004 47 182 5.0 0.0 0.00 0.00 0.00 72 1009.8
20260506131605 47 186 5.0 0.0 0.00 0.00 0.00 73 1009.7
20260506130058 48 218 6.0 0.0 0.00 0.00 0.00 77 1009.7
20260506124559 48 164 4.0 0.0 0.00 0.00 0.00 76 1010.0
20260506123052 48 201 4.0 0.0 0.00 0.00 0.00 75 1009.8
20260506121550 48 194 5.0 0.0 0.00 0.00 0.00 74 1009.9
20260506120050 48 231 3.0 0.0 0.00 0.00 0.00 75 1009.7
20260506114546 48 192 2.0 0.0 0.00 0.00 0.00 75 1009.9
20260506113045 48 184 2.0 0.0 0.00 0.00 0.00 75 1009.8
20260506111542 47 207 0.0 0.0 0.00 0.00 0.00 74 1009.7
20260506110040 47 207 1.0 0.0 0.00 0.00 0.00 72 1009.6
20260506104541 47 207 2.0 0.0 0.00 0.00 0.00 71 1009.4
20260506103040 47 192 2.0 0.0 0.00 0.00 0.00 71 1009.5
20260506101536 47 212 2.0 0.0 0.00 0.00 0.00 70 1009.7
20260506100038 47 253 2.0 0.0 0.00 0.00 0.00 68 1009.8
20260506094545 47 229 2.0 0.0 0.00 0.00 0.00 67 1009.7
20260506093037 47 202 2.0 0.0 0.00 0.00 0.00 66 1009.4
20260506091532 47 185 3.0 0.0 0.00 0.00 0.00 65 1009.3
20260506090028 48 199 3.0 0.0 0.00 0.00 0.00 63 1009.3
20260506084525 48 175 1.0 0.0 0.00 0.00 0.00 61 1009.5
20260506083023 48 256 1.0 0.0 0.00 0.00 0.00 61 1009.6
20260506081528 48 261 2.0 0.0 0.00 0.00 0.00 60 1009.4
20260506073019 48 238 2.0 0.0 0.00 0.00 0.00 61 1009.4
20260506071518 49 226 2.0 0.0 0.00 0.00 0.00 61 1009.6
20260506061514 49 252 2.0 0.0 0.00 0.00 0.00 56 1009.3
20260506044501 50 264 3.0 0.0 0.00 0.00 0.00 53 1008.9
20260506043059 51 240 3.0 0.0 0.00 0.00 0.00 54 1009.0
20260506041557 51 266 3.0 0.0 0.00 0.00 0.00 54 1008.9
20260506040055 51 238 3.0 0.0 0.00 0.00 0.00 53 1008.8
20260506034553 51 236 3.0 0.0 0.00 0.00 0.08 52 1008.8
20260506033051 52 297 4.0 0.0 0.00 0.00 0.08 51 1008.8
20260506031551 52 242 2.0 0.0 0.00 0.00 0.08 50 1008.7
20260506030046 52 246 3.0 0.0 0.00 0.00 0.08 49 1008.4
20260506024553 52 236 4.0 0.0 0.00 0.00 0.08 48 1008.2
20260506023043 52 247 4.0 0.0 0.00 0.00 0.08 49 1008.1
20260506021539 53 252 4.0 0.0 0.00 0.00 0.08 48 1007.9